• In Russia
  • List of Countries
  • For 7 days
  • Water Temperature
  • Satellite Maps
  • Weather Map
  • Weather Widgets
  • user-avatar
    Login

    Hourly Weather Mazari Sharif

    Today, 22 September, Friday

    Time Temperature Precipitation Wind Pressure Humidity
    00:00 +18°C° 0 mm 2 mps 654 mmHg 24%
    01:00 +18°C° 0 mm 2 mps 654 mmHg 25%
    02:00 +17°C° 0 mm 2 mps 654 mmHg 26%
    03:00 +18°C° 0 mm 1 mps 654 mmHg 27%
    04:00 +16°C° 0 mm 1 mps 654 mmHg 28%
    05:00 +18°C° 0 mm 1 mps 654 mmHg 26%
    06:00 +20°C° 0 mm 1 mps 655 mmHg 24%
    07:00 +21°C° 0 mm 1 mps 656 mmHg 21%
    08:00 +22°C° 0 mm 1 mps 656 mmHg 20%
    09:00 +23°C° 0 mm 2 mps 656 mmHg 18%
    10:00 +25°C° 0 mm 2 mps 656 mmHg 17%
    11:00 +25°C° 0 mm 2 mps 656 mmHg 16%
    12:00 +26°C° 0 mm 3 mps 656 mmHg 16%
    13:00 +27°C° 0 mm 3 mps 656 mmHg 15%
    14:00 +27°C° 0 mm 3 mps 656 mmHg 15%
    15:00 +26°C° 0 mm 3 mps 655 mmHg 15%
    16:00 +26°C° 0 mm 3 mps 655 mmHg 16%
    17:00 +25°C° 0 mm 2 mps 655 mmHg 18%
    18:00 +23°C° 0 mm 1 mps 655 mmHg 20%
    19:00 +21°C° 0 mm 1 mps 655 mmHg 23%
    20:00 +21°C° 0 mm 1 mps 655 mmHg 23%
    21:00 +20°C° 0 mm 1 mps 655 mmHg 24%
    22:00 +20°C° 0 mm 1 mps 655 mmHg 25%
    23:00 +19°C° 0 mm 1 mps 654 mmHg 26%

    Tomorrow, 23 September, Saturday

    Time Temperature Precipitation Wind Pressure Humidity
    00:00 +19°C° 0 mm 1 mps 654 mmHg 27%
    01:00 +18°C° 0 mm 1 mps 654 mmHg 27%
    02:00 +18°C° 0 mm 1 mps 654 mmHg 28%
    03:00 +16°C° 0 mm 1 mps 654 mmHg 29%
    04:00 +16°C° 0 mm 1 mps 654 mmHg 30%
    05:00 +18°C° 0 mm 1 mps 655 mmHg 27%
    06:00 +20°C° 0 mm 1 mps 656 mmHg 24%
    07:00 +21°C° 0 mm 1 mps 657 mmHg 22%
    08:00 +22°C° 0 mm 1 mps 657 mmHg 20%
    09:00 +24°C° 0 mm 1 mps 657 mmHg 18%
    10:00 +25°C° 0 mm 1 mps 657 mmHg 16%
    11:00 +26°C° 0 mm 2 mps 657 mmHg 15%
    12:00 +27°C° 0 mm 2 mps 657 mmHg 15%
    13:00 +27°C° 0 mm 3 mps 657 mmHg 14%
    14:00 +27°C° 0 mm 3 mps 657 mmHg 14%
    15:00 +27°C° 0 mm 3 mps 657 mmHg 14%
    16:00 +27°C° 0 mm 3 mps 657 mmHg 14%
    17:00 +25°C° 0 mm 2 mps 657 mmHg 16%
    18:00 +23°C° 0 mm 2 mps 656 mmHg 18%
    19:00 +21°C° 0 mm 1 mps 656 mmHg 20%
    20:00 +20°C° 0 mm 1 mps 656 mmHg 21%
    21:00 +20°C° 0 mm 1 mps 656 mmHg 21%
    22:00 +19°C° 0 mm 1 mps 656 mmHg 22%
    23:00 +19°C° 0 mm 1 mps 656 mmHg 23%

    Day after tomorrow, 24 September, Sunday

    Time Temperature Precipitation Wind Pressure Humidity
    00:00 +19°C° 0 mm 1 mps 656 mmHg 23%
    01:00 +18°C° 0 mm 1 mps 656 mmHg 24%
    02:00 +18°C° 0 mm 1 mps 655 mmHg 24%
    03:00 +16°C° 0 mm 1 mps 655 mmHg 25%
    04:00 +16°C° 0 mm 1 mps 655 mmHg 25%
    05:00 +18°C° 0 mm 1 mps 656 mmHg 23%
    06:00 +18°C° 0 mm 2 mps 657 mmHg 21%
    07:00 +20°C° 0 mm 2 mps 658 mmHg 19%
    08:00 +21°C° 0 mm 2 mps 658 mmHg 17%
    09:00 +24°C° 0 mm 2 mps 659 mmHg 15%
    10:00 +25°C° 0 mm 2 mps 659 mmHg 13%
    11:00 +26°C° 0 mm 2 mps 659 mmHg 12%
    12:00 +26°C° 0 mm 3 mps 659 mmHg 12%
    13:00 +27°C° 0 mm 3 mps 658 mmHg 11%
    14:00 +27°C° 0 mm 3 mps 658 mmHg 11%
    15:00 +26°C° 0 mm 3 mps 658 mmHg 10%
    16:00 +26°C° 0 mm 3 mps 658 mmHg 10%
    17:00 +24°C° 0 mm 3 mps 658 mmHg 12%
    18:00 +21°C° 0 mm 2 mps 658 mmHg 13%
    19:00 +20°C° 0 mm 1 mps 657 mmHg 15%
    20:00 +20°C° 0 mm 1 mps 657 mmHg 15%
    21:00 +19°C° 0 mm 2 mps 657 mmHg 15%
    22:00 +18°C° 0 mm 2 mps 657 mmHg 15%
    23:00 +18°C° 0 mm 2 mps 657 mmHg 15%

    25 September, Monday

    Time Temperature Precipitation Wind Pressure Humidity
    00:00 +17°C° 0 mm 2 mps 657 mmHg 16%
    01:00 +17°C° 0 mm 3 mps 657 mmHg 16%
    02:00 +17°C° 0 mm 3 mps 657 mmHg 17%
    03:00 +16°C° 0 mm 3 mps 657 mmHg 17%
    04:00 +16°C° 0 mm 3 mps 657 mmHg 18%
    05:00 +17°C° 0 mm 3 mps 657 mmHg 17%
    06:00 +18°C° 0 mm 3 mps 658 mmHg 16%
    07:00 +18°C° 0 mm 3 mps 659 mmHg 16%
    08:00 +20°C° 0 mm 3 mps 659 mmHg 15%
    09:00 +21°C° 0 mm 3 mps 659 mmHg 14%
    10:00 +22°C° 0 mm 3 mps 660 mmHg 14%
    11:00 +23°C° 0 mm 4 mps 660 mmHg 14%
    12:00 +23°C° 0 mm 4 mps 659 mmHg 14%
    13:00 +25°C° 0 mm 4 mps 659 mmHg 13%
    14:00 +25°C° 0 mm 4 mps 659 mmHg 14%
    15:00 +23°C° 0 mm 4 mps 659 mmHg 14%
    16:00 +23°C° 0 mm 4 mps 659 mmHg 14%
    17:00 +21°C° 0 mm 3 mps 658 mmHg 16%
    18:00 +19°C° 0 mm 2 mps 658 mmHg 17%
    19:00 +18°C° 0 mm 2 mps 658 mmHg 19%
    20:00 +17°C° 0 mm 2 mps 658 mmHg 20%
    21:00 +17°C° 0 mm 2 mps 658 mmHg 20%
    22:00 +16°C° 0 mm 2 mps 657 mmHg 21%
    23:00 +15°C° 0 mm 2 mps 657 mmHg 22%

    26 September, Tuesday

    Time Temperature Precipitation Wind Pressure Humidity
    00:00 +15°C° 0 mm 2 mps 657 mmHg 22%
    01:00 +14°C° 0 mm 1 mps 656 mmHg 23%
    02:00 +14°C° 0 mm 1 mps 656 mmHg 24%
    03:00 +13°C° 0 mm 1 mps 656 mmHg 25%
    04:00 +13°C° 0 mm 1 mps 656 mmHg 25%
    05:00 +14°C° 0 mm 1 mps 657 mmHg 23%
    06:00 +16°C° 0 mm 1 mps 657 mmHg 21%
    07:00 +18°C° 0 mm 1 mps 658 mmHg 19%
    08:00 +19°C° 0 mm 1 mps 658 mmHg 17%
    09:00 +21°C° 0 mm 1 mps 659 mmHg 16%
    10:00 +22°C° 0 mm 1 mps 659 mmHg 14%
    11:00 +23°C° 0 mm 2 mps 659 mmHg 13%
    12:00 +24°C° 0 mm 2 mps 658 mmHg 12%
    13:00 +24°C° 0 mm 3 mps 658 mmHg 11%
    14:00 +24°C° 0 mm 3 mps 658 mmHg 11%
    15:00 +24°C° 0 mm 3 mps 658 mmHg 12%
    16:00 +24°C° 0 mm 3 mps 658 mmHg 12%
    17:00 +21°C° 0 mm 2 mps 658 mmHg 13%
    18:00 +20°C° 0 mm 1 mps 658 mmHg 15%
    19:00 +18°C° 0 mm 1 mps 658 mmHg 17%
    20:00 +18°C° 0 mm 1 mps 658 mmHg 18%
    21:00 +16°C° 0 mm 1 mps 657 mmHg 19%
    22:00 +15°C° 0 mm 1 mps 657 mmHg 19%
    23:00 +15°C° 0 mm 1 mps 657 mmHg 20%

    27 September, Wednesday

    Time Temperature Precipitation Wind Pressure Humidity
    00:00 +15°C° 0 mm 1 mps 657 mmHg 20%
    01:00 +14°C° 0 mm 1 mps 656 mmHg 21%
    02:00 +14°C° 0 mm 1 mps 656 mmHg 21%
    03:00 +13°C° 0 mm 1 mps 656 mmHg 22%
    04:00 +12°C° 0 mm 0 mps 656 mmHg 22%
    05:00 +14°C° 0 mm 1 mps 657 mmHg 20%
    06:00 +16°C° 0 mm 1 mps 658 mmHg 18%
    07:00 +19°C° 0 mm 1 mps 659 mmHg 16%
    08:00 +20°C° 0 mm 1 mps 659 mmHg 14%
    09:00 +22°C° 0 mm 1 mps 659 mmHg 13%
    10:00 +23°C° 0 mm 1 mps 659 mmHg 11%
    11:00 +24°C° 0 mm 2 mps 659 mmHg 11%
    12:00 +25°C° 0 mm 2 mps 659 mmHg 10%
    13:00 +25°C° 0 mm 3 mps 658 mmHg 10%
    14:00 +25°C° 0 mm 3 mps 658 mmHg 10%
    15:00 +25°C° 0 mm 3 mps 658 mmHg 10%
    16:00 +25°C° 0 mm 3 mps 658 mmHg 10%
    17:00 +23°C° 0 mm 2 mps 658 mmHg 12%
    18:00 +21°C° 0 mm 1 mps 657 mmHg 14%
    19:00 +19°C° 0 mm 1 mps 657 mmHg 16%
    20:00 +18°C° 0 mm 1 mps 657 mmHg 17%
    21:00 +16°C° 0 mm 1 mps 656 mmHg 17%
    22:00 +16°C° 0 mm 1 mps 656 mmHg 18%
    23:00 +14°C° 0 mm 0 mps 656 mmHg 19%
    Show more